QFA6082 YMML-YSSY

Flight info

Callsign QFA6082
Flight time 1h 4m
Altitude 39000
Route ML H129 DOSEL Y59 RIVET
Aircraft B789/H-SDE1E2E3FGHIJ2J3J4J5M1RWXY/LB1D1

Departure

Time 2026-04-26 09:16
Airport Melbourne Airport (YMML)

Arrival

Time 2026-04-26 10:20
Airport Sydney Kingsford Smith International Airport (YSSY)
Time Latitude Longitude Altitude Speed Heading
2026-04-26 08:49 -37.66731 144.85272 401 ft 0 kts 262°
2026-04-26 09:04 -37.66729 144.85287 399 ft 4 kts 254°
2026-04-26 09:04 -37.66719 144.85318 396 ft 4 kts 249°
2026-04-26 09:04 -37.66716 144.85347 399 ft 2 kts 295°
2026-04-26 09:05 -37.66729 144.85373 399 ft 4 kts 323°
2026-04-26 09:05 -37.66752 144.85383 396 ft 4 kts
2026-04-26 09:05 -37.66773 144.85383 398 ft 0 kts 352°
2026-04-26 09:08 -37.66749 144.85378 394 ft 7 kts 352°
2026-04-26 09:09 -37.66675 144.85365 399 ft 14 kts 352°
2026-04-26 09:09 -37.66588 144.85341 399 ft 5 kts 325°
2026-04-26 09:09 -37.66577 144.85320 403 ft 4 kts 296°
2026-04-26 09:09 -37.66573 144.85264 403 ft 9 kts 265°
2026-04-26 09:10 -37.66584 144.85174 407 ft 10 kts 261°
2026-04-26 09:10 -37.66582 144.85089 409 ft 9 kts 296°
2026-04-26 09:10 -37.66535 144.85027 409 ft 8 kts 293°
2026-04-26 09:10 -37.66538 144.84939 411 ft 14 kts 261°
2026-04-26 09:11 -37.66566 144.84816 407 ft 14 kts 224°
2026-04-26 09:11 -37.66638 144.84731 407 ft 14 kts 250°
2026-04-26 09:11 -37.66655 144.84596 405 ft 17 kts 262°
2026-04-26 09:11 -37.66674 144.84439 403 ft 19 kts 261°
2026-04-26 09:12 -37.66694 144.84276 402 ft 15 kts 261°
2026-04-26 09:12 -37.66696 144.84208 402 ft 3 kts 296°
2026-04-26 09:12 -37.66645 144.84165 400 ft 12 kts 348°
2026-04-26 09:12 -37.66549 144.84148 408 ft 18 kts 352°
2026-04-26 09:13 -37.66394 144.84118 409 ft 28 kts 351°
2026-04-26 09:13 -37.66207 144.84083 409 ft 27 kts 351°
2026-04-26 09:13 -37.66027 144.84049 416 ft 24 kts 352°
2026-04-26 09:13 -37.65863 144.84018 415 ft 24 kts 352°
2026-04-26 09:14 -37.65700 144.83987 414 ft 24 kts 351°
2026-04-26 09:14 -37.65585 144.83931 429 ft 16 kts 307°
2026-04-26 09:14 -37.65570 144.83812 425 ft 13 kts 261°
2026-04-26 09:14 -37.65584 144.83701 424 ft 13 kts 261°
2026-04-26 09:15 -37.65606 144.83590 427 ft 13 kts 234°
2026-04-26 09:15 -37.65700 144.83560 426 ft 18 kts 171°
2026-04-26 09:15 -37.65875 144.83595 418 ft 42 kts 171°
2026-04-26 09:15 -37.66385 144.83690 410 ft 110 kts 171°
2026-04-26 09:16 -37.67382 144.83877 404 ft 176 kts 173°
2026-04-26 09:16 -37.68586 144.84084 1148 ft 170 kts 173°
2026-04-26 09:16 -37.69762 144.84284 1838 ft 171 kts 172°
2026-04-26 09:16 -37.70943 144.84495 2492 ft 174 kts 172°
2026-04-26 09:17 -37.72184 144.84730 2994 ft 187 kts 172°
2026-04-26 09:17 -37.73517 144.84797 3441 ft 198 kts 196°
2026-04-26 09:17 -37.74663 144.83866 3926 ft 201 kts 239°
2026-04-26 09:17 -37.75033 144.82187 4374 ft 204 kts 277°
2026-04-26 09:18 -37.74814 144.80382 4746 ft 214 kts 281°
2026-04-26 09:18 -37.74631 144.78455 5081 ft 228 kts 278°
2026-04-26 09:18 -37.74502 144.76404 5396 ft 240 kts 279°
2026-04-26 09:18 -37.73733 144.74461 5540 ft 260 kts 313°
2026-04-26 09:19 -37.72259 144.73172 6280 ft 261 kts 340°
2026-04-26 09:19 -37.70459 144.72963 7024 ft 265 kts
2026-04-26 09:19 -37.68729 144.73739 7657 ft 270 kts 20°
2026-04-26 09:19 -37.66972 144.74635 8327 ft 273 kts 19°
2026-04-26 09:20 -37.65193 144.75509 9043 ft 275 kts 18°
2026-04-26 09:20 -37.63398 144.76382 9746 ft 277 kts 18°
2026-04-26 09:20 -37.61587 144.77268 10358 ft 283 kts 18°
2026-04-26 09:20 -37.59710 144.78190 10674 ft 297 kts 18°
2026-04-26 09:21 -37.57735 144.79160 10997 ft 312 kts 18°
2026-04-26 09:21 -37.55749 144.80431 11206 ft 333 kts 32°
2026-04-26 09:21 -37.53879 144.82238 11681 ft 342 kts 33°
2026-04-26 09:21 -37.51960 144.84029 12336 ft 345 kts 32°
2026-04-26 09:22 -37.50014 144.85807 13019 ft 347 kts 32°
2026-04-26 09:22 -37.48050 144.87609 13685 ft 350 kts 32°
2026-04-26 09:22 -37.46079 144.89435 14305 ft 353 kts 32°
2026-04-26 09:22 -37.44113 144.91305 14859 ft 357 kts 36°
2026-04-26 09:23 -37.42486 144.93736 15376 ft 367 kts 50°
2026-04-26 09:23 -37.41012 144.96367 15951 ft 369 kts 50°
2026-04-26 09:23 -37.39527 144.99010 16526 ft 371 kts 50°
2026-04-26 09:23 -37.38030 145.01660 17128 ft 372 kts 50°
2026-04-26 09:24 -37.36527 145.04314 17717 ft 373 kts 50°
2026-04-26 09:24 -37.35019 145.06979 18274 ft 375 kts 50°
2026-04-26 09:24 -37.33501 145.09663 18785 ft 378 kts 50°
2026-04-26 09:24 -37.31971 145.12365 19186 ft 382 kts 50°
2026-04-26 09:25 -37.30420 145.15096 19579 ft 386 kts 50°
2026-04-26 09:25 -37.28855 145.17853 19972 ft 390 kts 50°
2026-04-26 09:25 -37.27270 145.20644 20347 ft 394 kts 50°
2026-04-26 09:25 -37.25670 145.23460 20730 ft 399 kts 50°
2026-04-26 09:26 -37.24050 145.26308 21102 ft 403 kts 51°
2026-04-26 09:26 -37.22414 145.29180 21468 ft 407 kts 51°
2026-04-26 09:26 -37.20760 145.32084 21819 ft 411 kts 51°
2026-04-26 09:26 -37.19091 145.35010 22170 ft 414 kts 51°
2026-04-26 09:27 -37.17406 145.37960 22523 ft 418 kts 51°
2026-04-26 09:27 -37.15707 145.40934 22869 ft 422 kts 51°
2026-04-26 09:27 -37.13989 145.43935 23209 ft 425 kts 51°
2026-04-26 09:27 -37.12257 145.46954 23587 ft 427 kts 51°
2026-04-26 09:28 -37.10515 145.49988 23904 ft 431 kts 51°
2026-04-26 09:28 -37.08759 145.53050 24259 ft 434 kts 51°
2026-04-26 09:28 -37.06994 145.56122 24721 ft 435 kts 51°
2026-04-26 09:28 -37.05220 145.59206 25137 ft 438 kts 51°
2026-04-26 09:29 -37.03435 145.62303 25533 ft 440 kts 51°
2026-04-26 09:29 -37.01637 145.65423 25926 ft 443 kts 52°
2026-04-26 09:29 -36.99834 145.68550 26352 ft 444 kts 52°
2026-04-26 09:29 -36.98021 145.71690 26746 ft 447 kts 52°
2026-04-26 09:30 -36.96193 145.74850 27123 ft 450 kts 52°
2026-04-26 09:30 -36.94358 145.78025 27498 ft 452 kts 52°
2026-04-26 09:30 -36.92512 145.81215 27890 ft 454 kts 52°
2026-04-26 09:30 -36.90657 145.84416 28264 ft 456 kts 52°
2026-04-26 09:31 -36.88791 145.87630 28616 ft 459 kts 52°
2026-04-26 09:31 -36.86912 145.90864 28988 ft 461 kts 52°
2026-04-26 09:31 -36.85025 145.94112 29339 ft 463 kts 52°
2026-04-26 09:31 -36.83123 145.97355 29471 ft 466 kts 52°
2026-04-26 09:32 -36.81246 146.00591 29849 ft 468 kts 52°
2026-04-26 09:32 -36.79341 146.03887 30215 ft 470 kts 52°
2026-04-26 09:32 -36.77412 146.07192 30507 ft 472 kts 52°
2026-04-26 09:32 -36.75471 146.10500 30793 ft 474 kts 52°
2026-04-26 09:33 -36.73522 146.13828 31097 ft 476 kts 52°
2026-04-26 09:33 -36.71572 146.17166 31391 ft 478 kts 52°
2026-04-26 09:33 -36.69613 146.20518 31696 ft 479 kts 52°
2026-04-26 09:33 -36.67642 146.23877 31999 ft 481 kts 52°
2026-04-26 09:34 -36.65659 146.27249 32298 ft 483 kts 52°
2026-04-26 09:34 -36.63672 146.30631 32593 ft 485 kts 52°
2026-04-26 09:34 -36.61680 146.34022 32862 ft 486 kts 51°
2026-04-26 09:34 -36.59674 146.37427 33138 ft 489 kts 51°
2026-04-26 09:35 -36.57660 146.40843 33421 ft 490 kts 51°
2026-04-26 09:35 -36.55638 146.44272 33699 ft 492 kts 51°
2026-04-26 09:35 -36.53611 146.47707 33984 ft 494 kts 51°
2026-04-26 09:35 -36.51576 146.51150 34296 ft 494 kts 51°
2026-04-26 09:36 -36.49540 146.54590 34611 ft 494 kts 52°
2026-04-26 09:36 -36.47504 146.58027 34906 ft 494 kts 52°
2026-04-26 09:36 -36.45465 146.61468 35192 ft 495 kts 52°
2026-04-26 09:36 -36.43422 146.64908 35482 ft 495 kts 52°
2026-04-26 09:37 -36.41376 146.68353 35767 ft 496 kts 52°
2026-04-26 09:37 -36.39329 146.71797 36035 ft 496 kts 52°
2026-04-26 09:37 -36.37273 146.75248 36309 ft 497 kts 52°
2026-04-26 09:37 -36.35212 146.78701 36579 ft 498 kts 53°
2026-04-26 09:38 -36.33158 146.82155 36851 ft 497 kts 53°
2026-04-26 09:38 -36.31102 146.85603 37117 ft 498 kts 53°
2026-04-26 09:38 -36.29038 146.89054 37367 ft 498 kts 53°
2026-04-26 09:38 -36.26970 146.92501 37641 ft 499 kts 53°
2026-04-26 09:39 -36.24902 146.95952 37920 ft 498 kts 53°
2026-04-26 09:39 -36.22837 146.99402 38181 ft 499 kts 53°
2026-04-26 09:39 -36.20768 147.02853 38459 ft 499 kts 53°
2026-04-26 09:39 -36.18698 147.06294 38754 ft 498 kts 53°
2026-04-26 09:40 -36.16629 147.09732 38997 ft 498 kts 53°
2026-04-26 09:40 -36.14563 147.13168 39184 ft 497 kts 53°
2026-04-26 09:40 -36.12504 147.16586 39254 ft 494 kts 53°
2026-04-26 09:41 -36.08400 147.23380 39258 ft 492 kts 53°
2026-04-26 09:41 -36.04316 147.30139 39250 ft 490 kts 53°
2026-04-26 09:42 -36.00233 147.36874 39254 ft 490 kts 53°
2026-04-26 09:42 -35.96158 147.43590 39248 ft 487 kts 52°
2026-04-26 09:43 -35.92780 147.49142 39262 ft 487 kts 52°
2026-04-26 09:43 -35.88711 147.55822 39257 ft 487 kts 52°
2026-04-26 09:44 -35.84642 147.62489 39263 ft 486 kts 52°
2026-04-26 09:44 -35.80570 147.69147 39265 ft 486 kts 52°
2026-04-26 09:45 -35.75844 147.76855 39267 ft 485 kts 52°
2026-04-26 09:45 -35.72436 147.82406 39269 ft 485 kts 52°
2026-04-26 09:46 -35.68362 147.89028 39266 ft 486 kts 52°
2026-04-26 09:46 -35.64280 147.95652 39276 ft 486 kts 52°
2026-04-26 09:47 -35.60180 148.02288 39275 ft 488 kts 52°
2026-04-26 09:47 -35.56083 148.08916 39278 ft 486 kts 52°
2026-04-26 09:48 -35.52016 148.15474 39287 ft 486 kts 52°
2026-04-26 09:48 -35.47915 148.22079 39283 ft 486 kts 51°
2026-04-26 09:49 -35.43818 148.28662 39284 ft 485 kts 51°
2026-04-26 09:49 -35.39713 148.35248 39285 ft 486 kts 51°
2026-04-26 09:50 -35.35607 148.41821 39290 ft 485 kts 51°
2026-04-26 09:50 -35.31522 148.48352 39290 ft 482 kts 51°
2026-04-26 09:51 -35.27453 148.54836 39288 ft 480 kts 51°
2026-04-26 09:51 -35.23384 148.61318 39294 ft 481 kts 51°
2026-04-26 09:52 -35.19296 148.67811 39294 ft 480 kts 51°
2026-04-26 09:52 -35.13196 148.77485 39283 ft 479 kts 51°
2026-04-26 09:53 -35.09114 148.83940 39280 ft 480 kts 51°
2026-04-26 09:53 -35.05026 148.90395 39278 ft 480 kts 51°
2026-04-26 09:54 -35.00942 148.96832 39269 ft 480 kts 51°
2026-04-26 09:54 -34.96857 149.03256 39262 ft 479 kts 51°
2026-04-26 09:55 -34.92764 149.09686 39265 ft 481 kts 51°
2026-04-26 09:55 -34.88654 149.16122 39269 ft 481 kts 51°
2026-04-26 09:56 -34.86608 149.19329 39071 ft 476 kts 51°
2026-04-26 09:56 -34.84572 149.22514 38273 ft 476 kts 51°
2026-04-26 09:56 -34.82540 149.25685 37545 ft 474 kts 51°
2026-04-26 09:56 -34.80520 149.28838 36877 ft 471 kts 52°
2026-04-26 09:57 -34.78506 149.31981 36229 ft 472 kts 52°
2026-04-26 09:57 -34.76474 149.35148 35568 ft 478 kts 52°
2026-04-26 09:57 -34.74426 149.38363 34887 ft 481 kts 54°
2026-04-26 09:57 -34.72708 149.41822 34203 ft 476 kts 62°
2026-04-26 09:58 -34.71188 149.45385 33467 ft 472 kts 64°
2026-04-26 09:58 -34.69709 149.48925 32788 ft 468 kts 63°
2026-04-26 09:58 -34.68210 149.52351 32143 ft 463 kts 62°
2026-04-26 09:58 -34.66677 149.55775 31502 ft 459 kts 62°
2026-04-26 09:59 -34.65183 149.59178 30871 ft 455 kts 63°
2026-04-26 09:59 -34.63720 149.62568 30233 ft 451 kts 63°
2026-04-26 09:59 -34.62263 149.65915 29524 ft 447 kts 62°
2026-04-26 09:59 -34.60804 149.69221 28901 ft 441 kts 62°
2026-04-26 10:00 -34.59364 149.72485 28274 ft 436 kts 62°
2026-04-26 10:00 -34.57948 149.75714 27679 ft 431 kts 62°
2026-04-26 10:00 -34.56551 149.78908 27096 ft 426 kts 62°
2026-04-26 10:00 -34.55163 149.82062 26512 ft 421 kts 62°
2026-04-26 10:01 -34.53789 149.85172 25952 ft 416 kts 62°
2026-04-26 10:01 -34.52435 149.88243 25388 ft 411 kts 62°
2026-04-26 10:01 -34.51096 149.91280 24846 ft 406 kts 62°
2026-04-26 10:01 -34.49770 149.94284 24303 ft 402 kts 61°
2026-04-26 10:02 -34.48457 149.97253 23747 ft 398 kts 61°
2026-04-26 10:02 -34.47155 150.00193 23138 ft 393 kts 61°
2026-04-26 10:02 -34.45872 150.03090 22586 ft 388 kts 61°
2026-04-26 10:02 -34.44607 150.05948 22037 ft 382 kts 61°
2026-04-26 10:03 -34.43358 150.08761 21527 ft 377 kts 61°
2026-04-26 10:03 -34.42121 150.11545 21017 ft 374 kts 61°
2026-04-26 10:03 -34.40889 150.14317 20536 ft 374 kts 61°
2026-04-26 10:03 -34.39657 150.17088 20045 ft 373 kts 61°
2026-04-26 10:04 -34.38434 150.19840 19551 ft 368 kts 61°
2026-04-26 10:04 -34.37229 150.22546 19068 ft 363 kts 61°
2026-04-26 10:04 -34.36032 150.25229 18589 ft 361 kts 61°
2026-04-26 10:04 -34.34842 150.27895 18058 ft 360 kts 61°
2026-04-26 10:05 -34.33654 150.30558 17550 ft 359 kts 61°
2026-04-26 10:05 -34.32469 150.33210 17059 ft 357 kts 61°
2026-04-26 10:05 -34.31300 150.35825 16584 ft 350 kts 61°
2026-04-26 10:05 -34.30144 150.38410 16114 ft 349 kts 61°
2026-04-26 10:06 -34.28987 150.40991 15661 ft 349 kts 61°
2026-04-26 10:06 -34.27831 150.43569 15204 ft 348 kts 61°
2026-04-26 10:06 -34.26690 150.46121 14750 ft 342 kts 61°
2026-04-26 10:06 -34.25569 150.48638 14300 ft 339 kts 61°
2026-04-26 10:07 -34.24448 150.51148 13826 ft 340 kts 61°
2026-04-26 10:07 -34.23327 150.53648 13340 ft 335 kts 61°
2026-04-26 10:07 -34.22220 150.56116 12883 ft 333 kts 61°
2026-04-26 10:07 -34.21133 150.58541 12437 ft 333 kts 61°
2026-04-26 10:08 -34.20035 150.60993 11999 ft 329 kts 61°
2026-04-26 10:08 -34.18953 150.63404 11562 ft 326 kts 61°
2026-04-26 10:08 -34.17879 150.65793 11132 ft 320 kts 61°
2026-04-26 10:08 -34.16836 150.68112 10873 ft 308 kts 61°
2026-04-26 10:09 -34.15836 150.70336 10603 ft 296 kts 61°
2026-04-26 10:09 -34.14866 150.72492 10309 ft 288 kts 61°
2026-04-26 10:09 -34.13927 150.74580 10012 ft 279 kts 61°
2026-04-26 10:09 -34.13347 150.76786 9283 ft 282 kts 88°
2026-04-26 10:10 -34.13699 150.79109 8725 ft 279 kts 106°
2026-04-26 10:10 -34.14247 150.81227 8426 ft 248 kts 107°
2026-04-26 10:10 -34.14657 150.83084 8335 ft 215 kts 102°
2026-04-26 10:10 -34.14958 150.84862 8220 ft 224 kts 101°
2026-04-26 10:11 -34.15268 150.86711 8067 ft 219 kts 102°
2026-04-26 10:11 -34.15591 150.88520 7915 ft 229 kts 102°
2026-04-26 10:11 -34.15947 150.90506 7765 ft 250 kts 102°
2026-04-26 10:11 -34.16314 150.92565 7577 ft 252 kts 102°
2026-04-26 10:12 -34.16675 150.94605 7355 ft 244 kts 102°
2026-04-26 10:12 -34.17032 150.96626 7130 ft 250 kts 102°
2026-04-26 10:12 -34.17415 150.98771 6847 ft 267 kts 102°
2026-04-26 10:12 -34.17799 151.00952 6562 ft 262 kts 102°
2026-04-26 10:13 -34.18179 151.03105 6279 ft 263 kts 102°
2026-04-26 10:13 -34.18562 151.05275 5999 ft 264 kts 102°
2026-04-26 10:13 -34.18944 151.07448 5728 ft 263 kts 102°
2026-04-26 10:13 -34.19319 151.09579 5458 ft 258 kts 102°
2026-04-26 10:14 -34.19380 151.11735 5102 ft 261 kts 78°
2026-04-26 10:14 -34.18957 151.13829 4863 ft 256 kts 77°
2026-04-26 10:14 -34.18571 151.15941 4612 ft 256 kts 77°
2026-04-26 10:14 -34.18207 151.18027 4356 ft 254 kts 77°
2026-04-26 10:15 -34.17793 151.20104 4091 ft 254 kts 69°
2026-04-26 10:15 -34.16758 151.21762 3827 ft 243 kts 38°
2026-04-26 10:15 -34.15297 151.22622 3530 ft 231 kts 11°
2026-04-26 10:15 -34.13734 151.22614 3199 ft 223 kts 350°
2026-04-26 10:16 -34.12258 151.22213 2959 ft 209 kts 347°
2026-04-26 10:16 -34.10940 151.21857 3082 ft 192 kts 348°
2026-04-26 10:16 -34.09479 151.21459 3117 ft 230 kts 348°
2026-04-26 10:16 -34.07953 151.21058 2682 ft 216 kts 348°
2026-04-26 10:17 -34.06558 151.20690 2237 ft 195 kts 349°
2026-04-26 10:17 -34.05305 151.20365 1869 ft 176 kts 349°
2026-04-26 10:17 -34.04171 151.20061 1591 ft 158 kts 351°
2026-04-26 10:17 -34.03149 151.19791 1359 ft 144 kts 350°
2026-04-26 10:18 -34.02180 151.19541 1191 ft 142 kts 351°
2026-04-26 10:18 -34.01246 151.19309 1007 ft 132 kts 351°
2026-04-26 10:18 -34.00337 151.19076 873 ft 139 kts 351°
2026-04-26 10:18 -33.99380 151.18831 670 ft 138 kts 351°
2026-04-26 10:19 -33.98459 151.18592 463 ft 137 kts 351°
2026-04-26 10:19 -33.97508 151.18340 277 ft 140 kts 350°
2026-04-26 10:19 -33.96566 151.18096 102 ft 139 kts 350°
2026-04-26 10:19 -33.95671 151.17869 35 ft 118 kts 348°
2026-04-26 10:20 -33.95032 151.17702 33 ft 75 kts 348°
2026-04-26 10:20 -33.94735 151.17626 35 ft 55 kts 347°
2026-04-26 10:20 -33.94363 151.17395 35 ft 28 kts 318°
2026-04-26 10:20 -33.94279 151.17310 35 ft 0 kts 327°
2026-04-26 10:22 -33.94264 151.17301 35 ft 5 kts 338°
2026-04-26 10:22 -33.94198 151.17283 34 ft 15 kts 348°
2026-04-26 10:22 -33.94076 151.17252 34 ft 17 kts 348°
2026-04-26 10:22 -33.93980 151.17209 33 ft 5 kts 306°
2026-04-26 10:23 -33.93978 151.17188 35 ft 2 kts 260°
2026-04-26 10:23 -33.93985 151.17139 35 ft 8 kts 280°
2026-04-26 10:23 -33.93972 151.17120 35 ft 4 kts 326°
2026-04-26 10:23 -33.93911 151.17092 35 ft 12 kts 347°
2026-04-26 10:24 -33.93827 151.17069 35 ft 13 kts 348°
2026-04-26 10:24 -33.93786 151.17052 35 ft 1 kts 312°
2026-04-26 10:24 -33.93782 151.17036 35 ft 3 kts 279°
2026-04-26 10:24 -33.93784 151.17004 35 ft 3 kts 253°
2026-04-26 10:25 -33.93791 151.16975 35 ft 2 kts 255°
2026-04-26 10:25 -33.93795 151.16958 35 ft 0 kts 255°
2026-04-26 10:25 -33.93795 151.16956 35 ft 0 kts 255°